Wind_Speed
5 5 5 5 5 4 5 5 5 5 5 4 3 3 3 4 4 4 4 5 4 4 4 4 4 4 4 4 4 4 4 4 5 5 4 5 5 5 5 5 6 6 7
6 6 5 5 5 5 5 5 6 5 5 4 4 4 4 4 4 4 4 5 5 4 4 3 3 3 4 4 4 5 4 5 5 5 4 4 4 4 5 5 5 5 5
5 5 5 6 5 5 5 6 5 5 5 4 4 4 4 4 5 5 4 4 4 4 4 3 3 3 4 4 4 5 5 4 5 5 5 5 4 4 4 5 5 4 4
5 5 6 6 6 6 6 6 6 6 5 4 5 5 4 4 5 5 5 5 4 4 4 4 4 4 4 4 4 5 5 4 4 5 5 5 4 4 4 5 4 4 4
6 6 7 7 7 7 7 6 6 6 5 5 6 5 5 5 5 5 5 5 4 4 4 4 4 4 4 4 4 5 5 5 5 5 5 4 5 5 4 5 5 5 5
7 7 7 7 7 7 7 7 7 6 6 6 6 6 6 6 6 5 5 5 5 5 5 5 4 5 5 4 4 5 5 6 5 4 4 4 5 4 5 5 5 5 6
7 7 7 7 7 7 7 7 7 7 7 7 7 7 7 7 6 6 5 5 5 5 5 6 6 6 6 5 5 5 5 6 6 5 4 4 5 5 6 6 6 6 7
7 7 7 7 7 8 7 7 7 7 7 8 8 7 8 8 7 6 6 6 6 6 6 7 6 6 6 6 6 6 6 6 6 5 5 5 6 6 6 6 7 7 7
7 7 7 7 7 7 7 7 7 7 8 8 8 8 8 8 7 6 6 6 7 7 7 7 6 6 6 6 6 6 6 6 6 6 6 6 6 5 6 6 6 7 7
8 8 8 8 8 7 7 8 8 8 8 9 8 8 8 7 7 7 7 6 7 7 7 7 7 6 7 7 6 6 6 7 7 7 7 7 7 7 7 7 7 7 7
8 9 9 9 9 9 9 9 9 9 9 9 9 8 7 7 8 7 7 7 7 7 7 8 7 7 7 7 7 7 7 8 8 8 8 8 8 8 8 9 9 9 9
10 9 9 9 10 10 10 10 10 10 10 9 9 8 8 8 8 8 8 7 7 7 7 7 7 7 7 8 8 8 8 8 8 8 9 9 9 9 9 10 10 10 10
10 10 10 10 10 10 10 10 11 10 10 10 9 9 9 9 9 9 8 8 7 8 8 7 8 8 8 8 9 9 9 9 9 9 10 10 10 10 10 10 11 11 12
10 10 10 10 11 11 11 12 12 12 11 11 11 11 11 11 10 10 9 9 9 9 9 9 9 9 10 10 10 10 10 10 11 11 11 11 11 11 11 12 12 13 14
11 11 11 11 12 12 12 12 12 12 12 12 12 12 12 12 11 11 11 11 11 10 10 11 11 11 11 12 12 11 11 11 11 12 12 12 12 13 13 13 14 14 15
13 13 13 13 13 13 13 13 13 13 12 11 12 12 13 12 12 12 12 12 12 12 12 12 12 12 12 13 13 13 13 13 13 13 13 13 13 14 14 14 15 16 16
15 15 15 14 14 14 14 14 14 13 13 13 12 13 14 14 14 14 14 14 14 13 14 14 14 14 14 14 15 15 15 15 14 14 14 14 14 14 15 16 16 17 18
15 15 15 15 15 14 14 14 14 14 14 14 14 14 15 16 16 16 15 15 15 15 15 15 15 15 16 16 17 17 17 17 17 16 16 16 16 16 17 17 17 18 18
16 16 16 16 16 15 15 15 15 15 15 15 15 15 16 16 17 17 17 17 16 16 17 17 17 17 17 17 17 17 18 18 18 17 17 17 17 17 18 18 19 19 20
17 17 17 17 17 16 15 15 16 16 15 15 15 16 16 16 16 17 17 18 18 17 18 18 18 18 18 18 18 18 18 18 19 19 19 18 18 19 19 20 20 20 21
18 18 17 17 17 17 16 16 16 16 16 16 16 16 16 17 17 17 18 18 18 18 19 19 19 19 19 19 20 20 20 20 21 21 20 20 20 20 20 21 21 22 22
19 19 19 18 18 18 18 18 18 17 17 17 18 18 17 18 17 18 18 19 19 19 20 20 20 21 21 21 22 22 22 22 22 22 22 22 22 22 22 23 23 23 23
20 20 21 20 19 19 19 20 20 19 19 19 19 19 19 19 19 19 19 20 21 21 21 22 22 23 23 22 23 23 23 23 24 24 24 24 24 24 24 24 24 24 24
21 22 22 21 21 20 20 20 20 20 20 20 20 20 20 20 20 20 21 21 22 22 22 23 23 23 24 24 24 24 24 25 25 26 26 26 26 25 26 26 25 25 25
22 23 22 22 22 21 21 20 21 21 21 22 22 22 22 22 22 22 22 23 23 24 24 24 24 24 24 24 25 25 26 26 26 26 26 26 26 26 26 26 26 26 27
24 23 23 23 23 23 22 22 23 23 23 24 24 24 23 24 24 24 24 25 25 26 26 26 25 25 25 25 26 26 27 27 27 27 27 27 27 27 27 27 27 27 27
Wind_Direction
13 8 8 3 354 346 340 339 341 343 338 331 326 311 298 294 300 296 288 286 289 288 276 274 276 274 274 278 292 307 302 296 306 309 294 282 280 283 274 270 270 268 265
2 1 356 349 341 337 332 328 331 330 328 322 318 313 305 297 298 292 286 283 284 281 275 279 284 282 282 282 289 305 302 296 299 301 292 287 287 281 282 285 283 276 271
353 349 343 338 332 328 324 319 319 319 319 319 319 314 306 300 298 288 280 281 282 274 269 274 281 288 288 289 293 301 300 289 293 293 293 291 284 282 277 281 277 275 274
346 341 337 332 329 328 320 316 317 313 308 311 314 310 304 302 299 291 281 280 285 276 267 266 279 284 294 295 296 299 302 291 288 291 296 293 283 285 282 273 268 273 275
341 335 332 326 320 321 322 320 321 314 303 303 308 307 310 308 300 291 280 272 275 274 266 267 269 278 291 299 302 301 301 301 289 287 285 287 279 278 281 275 270 267 269
338 334 330 325 320 319 319 321 321 314 306 303 300 296 302 306 298 288 280 273 268 269 268 269 268 277 284 286 293 294 298 303 300 289 286 288 284 280 287 286 280 270 267
331 328 324 323 322 320 320 322 320 314 309 306 301 295 296 301 298 290 282 275 269 268 267 265 269 274 279 284 289 287 290 296 300 299 297 300 291 280 279 279 276 276 278
325 324 323 320 318 315 315 318 320 316 312 308 305 298 295 297 295 290 282 274 266 269 273 265 263 269 276 277 279 281 287 293 294 293 295 298 294 283 278 280 279 277 278
320 320 320 318 317 315 315 317 317 314 311 305 301 296 293 294 292 288 279 272 267 270 273 265 261 264 270 271 273 277 285 290 290 290 292 295 295 292 292 293 290 287 288
320 320 319 320 319 314 311 311 310 308 305 304 301 293 290 287 284 282 276 270 270 267 267 268 262 258 264 268 277 280 284 287 289 289 290 290 290 291 288 289 291 291 290
318 316 314 315 316 312 306 304 304 305 305 305 300 292 287 282 274 271 268 269 267 270 267 266 265 265 272 274 277 282 285 287 287 286 287 289 291 293 291 287 287 289 289
309 309 307 309 307 305 301 300 301 300 302 303 297 289 286 283 275 266 265 271 268 266 266 265 268 271 274 276 278 280 286 287 283 283 284 286 290 292 291 288 286 288 289
300 303 302 301 301 300 298 298 298 295 296 296 292 286 284 286 283 268 265 267 266 263 263 264 267 272 275 277 278 279 283 284 282 284 283 283 286 288 289 288 289 290 291
295 299 297 296 297 296 294 294 294 291 291 290 287 283 283 285 285 273 266 264 264 263 263 263 268 272 274 276 277 278 278 278 281 285 285 282 283 286 288 290 292 293 294
290 294 293 292 294 293 294 294 293 290 288 287 283 280 281 283 282 274 265 264 265 264 264 266 268 271 276 277 275 277 278 278 281 284 286 284 281 284 287 290 293 295 296
287 290 290 290 291 291 292 294 292 289 287 285 280 280 281 279 279 274 267 264 264 264 267 268 268 270 274 277 277 276 275 275 277 281 283 285 285 284 286 289 292 294 296
285 286 287 290 292 291 291 292 292 290 287 286 282 279 277 277 277 274 268 264 263 265 266 269 268 270 274 277 277 277 274 274 275 279 281 282 284 287 290 290 291 293 295
285 286 287 289 292 293 292 292 292 291 289 287 281 279 278 277 277 275 271 268 267 267 267 269 270 272 275 277 277 277 275 273 272 275 278 279 281 284 286 287 289 292 294
285 285 286 288 290 294 293 292 290 290 289 287 282 282 280 278 276 274 272 269 268 268 268 269 272 274 276 276 277 278 277 275 272 273 275 278 278 281 284 287 289 291 293
283 284 284 287 288 290 290 290 290 291 290 287 285 282 280 278 277 275 272 269 269 268 267 269 270 274 275 277 277 276 277 277 276 275 274 276 278 280 282 285 289 291 294
283 282 283 285 286 286 285 287 288 288 288 288 288 285 282 280 278 276 274 271 270 268 268 270 269 270 273 275 276 275 275 276 277 275 275 276 278 280 283 285 288 290 291
282 281 281 282 282 283 283 284 286 286 287 287 287 285 282 280 279 277 276 275 274 272 270 272 270 270 273 275 274 274 274 274 276 276 275 277 277 279 282 285 287 288 289
280 279 278 279 280 281 283 283 284 285 285 285 285 282 281 280 279 276 276 276 277 276 273 272 272 272 271 272 273 274 274 274 276 276 277 278 279 280 283 284 286 287 288
278 278 278 278 279 281 282 282 281 283 284 284 284 282 280 280 280 276 276 276 276 275 274 273 272 271 270 271 272 273 275 276 277 277 278 279 280 282 284 284 285 287 288
274 276 279 279 279 279 280 281 281 283 283 284 283 282 280 280 279 278 277 276 275 275 274 273 272 271 271 272 271 270 273 276 277 277 278 280 281 281 282 282 282 284 287
273 275 277 278 278 279 280 281 282 282 282 282 282 281 280 280 278 277 277 277 276 276 275 273 272 270 270 271 272 273 273 273 276 277 277 279 279 279 280 281 283 285 286
Height
5871 5870 5869 5868 5867 5867 5866 5865 5864 5863 5863 5862 5861 5860 5860 5860 5859 5859 5858 5858 5857 5857 5856 5856 5856 5856 5856 5855 5855 5854 5853 5852 5852 5852 5851 5851 5850 5850 5850 5850 5849 5849 5849
5870 5869 5868 5867 5866 5866 5865 5864 5863 5862 5861 5861 5860 5860 5859 5858 5858 5857 5857 5856 5856 5855 5855 5855 5855 5855 5854 5854 5854 5853 5852 5852 5851 5851 5850 5850 5850 5849 5849 5848 5848 5847 5847
5869 5868 5867 5866 5865 5865 5864 5863 5862 5861 5860 5859 5859 5858 5858 5857 5856 5856 5855 5855 5855 5854 5854 5854 5854 5853 5853 5853 5852 5852 5851 5850 5850 5850 5849 5849 5848 5848 5848 5847 5846 5846 5846
5868 5867 5866 5865 5864 5863 5862 5861 5860 5860 5859 5858 5857 5857 5856 5855 5855 5854 5854 5854 5853 5853 5853 5853 5852 5852 5852 5852 5851 5851 5850 5849 5849 5848 5848 5848 5847 5847 5846 5846 5845 5845 5844
5867 5866 5865 5864 5863 5862 5861 5860 5859 5858 5857 5856 5856 5855 5854 5854 5853 5853 5852 5852 5852 5852 5852 5851 5851 5851 5851 5850 5850 5849 5849 5848 5848 5847 5846 5846 5846 5845 5845 5844 5844 5843 5843
5865 5864 5863 5862 5861 5860 5859 5858 5857 5856 5855 5855 5854 5853 5853 5852 5851 5851 5851 5850 5851 5851 5850 5850 5850 5850 5850 5849 5849 5848 5848 5847 5846 5845 5845 5845 5844 5843 5843 5842 5842 5841 5841
5864 5863 5862 5861 5860 5858 5857 5856 5855 5854 5853 5853 5852 5852 5851 5850 5850 5849 5849 5848 5849 5849 5849 5848 5848 5848 5848 5848 5847 5847 5847 5846 5845 5845 5844 5843 5843 5842 5841 5841 5840 5840 5839
5862 5861 5860 5859 5858 5857 5856 5854 5853 5852 5852 5851 5850 5849 5849 5848 5848 5847 5847 5847 5847 5847 5847 5846 5846 5846 5846 5846 5846 5845 5845 5845 5844 5843 5843 5842 5841 5840 5839 5839 5838 5837 5837
5860 5860 5859 5857 5856 5855 5854 5853 5852 5851 5850 5849 5848 5847 5846 5846 5845 5845 5845 5845 5845 5845 5845 5844 5844 5844 5844 5844 5844 5844 5843 5843 5842 5842 5841 5840 5839 5838 5837 5837 5836 5836 5835
5859 5858 5857 5855 5854 5853 5852 5851 5850 5849 5848 5847 5846 5845 5844 5844 5843 5843 5843 5843 5843 5843 5843 5843 5842 5842 5842 5842 5842 5842 5841 5841 5840 5840 5839 5838 5837 5836 5835 5835 5834 5833 5833
5857 5856 5855 5854 5853 5851 5850 5849 5848 5847 5845 5844 5843 5842 5842 5841 5841 5841 5840 5840 5840 5840 5840 5840 5840 5840 5840 5840 5840 5840 5839 5838 5838 5837 5836 5836 5835 5834 5833 5832 5832 5831 5830
5855 5854 5853 5852 5850 5849 5848 5846 5845 5844 5843 5842 5841 5840 5840 5839 5839 5838 5838 5838 5838 5838 5838 5838 5838 5838 5838 5837 5837 5837 5837 5836 5835 5834 5834 5833 5832 5831 5830 5830 5829 5828 5827
5852 5851 5850 5849 5848 5847 5845 5844 5843 5841 5840 5839 5839 5838 5837 5836 5836 5836 5835 5835 5835 5836 5835 5835 5835 5835 5835 5835 5835 5834 5834 5833 5832 5831 5831 5830 5830 5829 5828 5827 5826 5825 5824
5849 5848 5847 5846 5845 5844 5842 5841 5840 5838 5837 5836 5836 5835 5834 5834 5833 5832 5832 5832 5833 5833 5833 5833 5833 5833 5832 5832 5832 5831 5831 5830 5829 5828 5828 5827 5826 5826 5825 5824 5823 5821 5820
5846 5845 5844 5842 5841 5840 5839 5837 5836 5835 5834 5833 5832 5832 5831 5830 5829 5829 5829 5829 5829 5829 5829 5829 5829 5829 5829 5828 5828 5828 5827 5827 5826 5825 5824 5823 5823 5822 5821 5820 5819 5818 5816
5842 5841 5840 5839 5837 5836 5835 5834 5832 5831 5830 5829 5829 5828 5827 5826 5826 5826 5825 5825 5825 5826 5826 5826 5826 5825 5825 5825 5824 5824 5823 5823 5822 5821 5821 5819 5819 5818 5817 5816 5815 5813 5812
5837 5836 5835 5834 5833 5832 5831 5830 5828 5827 5826 5825 5824 5824 5823 5822 5822 5821 5821 5821 5821 5821 5822 5822 5821 5821 5821 5820 5820 5819 5819 5818 5818 5817 5816 5815 5814 5813 5812 5811 5810 5809 5807
5833 5832 5830 5830 5828 5827 5826 5825 5824 5823 5822 5821 5820 5819 5819 5818 5817 5817 5816 5816 5817 5817 5817 5817 5817 5816 5816 5816 5815 5815 5814 5814 5813 5812 5811 5810 5810 5809 5808 5806 5805 5804 5802
5828 5827 5825 5825 5824 5822 5821 5820 5819 5818 5817 5816 5815 5814 5813 5813 5812 5811 5811 5811 5812 5812 5812 5812 5812 5811 5811 5810 5810 5809 5809 5808 5807 5807 5806 5805 5804 5803 5802 5801 5800 5798 5797
5822 5821 5820 5819 5819 5817 5816 5815 5814 5813 5812 5811 5810 5809 5808 5807 5807 5806 5806 5806 5806 5806 5806 5806 5806 5806 5805 5805 5804 5804 5803 5803 5802 5801 5800 5800 5799 5798 5796 5795 5794 5792 5791
5817 5816 5815 5814 5813 5812 5811 5810 5809 5808 5807 5806 5805 5804 5803 5802 5801 5801 5800 5800 5800 5800 5800 5800 5800 5800 5799 5799 5798 5797 5797 5796 5796 5795 5794 5793 5792 5791 5790 5789 5788 5786 5784
5810 5810 5809 5809 5808 5807 5806 5805 5804 5803 5801 5800 5799 5798 5797 5796 5796 5795 5795 5794 5794 5794 5794 5794 5794 5793 5793 5792 5792 5791 5790 5790 5789 5788 5787 5787 5786 5785 5783 5782 5781 5779 5777
5803 5803 5803 5802 5802 5801 5800 5799 5798 5797 5796 5795 5793 5792 5791 5791 5790 5789 5789 5788 5788 5787 5787 5787 5787 5786 5786 5785 5784 5784 5783 5782 5782 5781 5780 5779 5778 5777 5776 5775 5773 5772 5770
5796 5796 5796 5796 5795 5795 5794 5793 5792 5790 5789 5788 5787 5786 5785 5784 5783 5783 5782 5781 5781 5780 5780 5779 5779 5779 5778 5777 5777 5776 5776 5775 5774 5773 5772 5771 5770 5769 5768 5767 5765 5764 5762
5789 5789 5789 5789 5788 5788 5787 5786 5785 5784 5783 5782 5781 5779 5778 5777 5776 5776 5775 5774 5774 5773 5772 5772 5771 5771 5770 5770 5769 5768 5768 5767 5766 5765 5764 5764 5762 5761 5760 5759 5757 5755 5754
5782 5782 5782 5781 5781 5780 5780 5779 5778 5776 5775 5774 5773 5772 5771 5770 5769 5768 5767 5766 5766 5765 5764 5763 5763 5762 5762 5761 5760 5760 5759 5759 5758 5757 5756 5755 5754 5753 5752 5750 5749 5747 5745